Showing default

BRO-6, 52422

Orbit data source: Space-Track

BRO-6, 52422 is a payload satellite owned by Unseen Labs (FR) in SSO that was launched on Mon, 02 May 2022 UTC via an ELECTRON launch vehicle from the Rocket Lab Launch Complex (RLLC). Payload-class satellites include a variety of spacecraft equipped with specific instruments for various scientific and technological missions. These include communications satellites like Starlink; space stations such as the ISS; scientific satellites like the Hubble; Earth observation satellites from companies like Planet Labs, Umbra, and HawkEye 360; GPS; miniature CubeSats for education and research; and military/defense satellites.

Not visible in the next 10 days
Identifier
52422, 2022-047AE
Orbit
SSO
Country
Flag of FRFR
Related business
Manufacturer
GOMSpace
Mission
Operational Commercial Sigint
Bus & Motor
CUBESAT 6U, Unknown motor
Mass
10 kg wet, ~10 kg dry
Launch date (UTC)
2022-05-02 (4 years ago)
Launch vehicle
ELECTRON
Launch site
Rocket Lab Launch Complex (RLLC)
Object type
Payload
Rocket body
Debris
Shape & HBR
Box, 0.1 m
Radar Cross Section
0.080 m², Medium (>0.1 m² and < 1m²)

Expand to show TLE details & history
Last TLE update: 7 hours ago

TLE from 7 hours ago
0 BRO-6
1 52422U 22047AE  26127.96278564  .00029372  00000-0  55881-3 0  9998
2 52422  97.3392 218.3259 0004789 200.6909 159.4149 15.48178622224920
Epoch: 2026-05-07T23:06Z
TLE epoch observation values (Epoch: 2026-05-07T23:06:24.679Z)
Latitude
0.00005°
Longitude
5.92167°
Altitude
428.234 km
Speed
7.653 km/s
True Right ascension
14h 33m 18s
True Declination
0° 00' 00"
Sunlit
Object was in full shadow at epoch
Visualization orbit readout
Latitude
Unknown
Longitude
Unknown
Altitude
Unknown
Speed
Unknown
Apparent Right ascension
Unknown
Apparent Declination
Unknown
Sunlit
N/A
Visualization observer readout
Local Sidereal Time
13:48:27
Azimuth
Unknown
Elevation
Unknown
Doppler factor
Unknown
Orbital elements
Apogee altitude
422.235 km
Perigee altitude
415.725 km
Semi-major axis
6,797.117 km
Eccentricity
0.00048
Inclination
97.3392°
RAAN
218.3259°
Arg. of periapsis
200.6909°
True anomaly
159.43418°
Mean anomaly
159.4149°
Eccentric anomaly
159.42454°
Mean motion
3.87308 °/min
Orbital period
92.95 mins
BSTAR
0.00055881
Loading maneuver chart data...
Computing Atmospheric mass density...

Documentation

Showing up to 5 results
|